SCP
0 0 0 0 0 0 -0 -0 -0 -0 -0 -0 -0 -0 0 0 -0 0 -0 -0 -0 -0 -0 0 -0 -0 0 0 0 0 -0 -0 -0 -0 -0 -0 -0 -0 -0 -0 -0 -0 -0 -0 -0 -0 -0 -0 -0
0 0 0 0 0 0 0 0 -0 -0 0 -0 -0 0 -0 -0 -0 -0 0 0 0 -0 -0 -0 -0 -0 -0 -0 -0 -0 -0 -0 -0 -0 -0 -0 -0 -0 -0 -0 -0 -0 -0 -0 -0 -0 -0 -0 -0
0 0 0 0 0 0 0 0 0 -0 -0 -0 -0 0 0 -0 0 0 0 0 -0 -0 -0 -0 -0 -0 0 0 -0 -0 -0 -0 -0 -0 -0 -0 -0 -0 -0 -0 -0 -0 -0 -0 -0 -0 -0 -0 -0
0 0 0 0 0 0 0 -0 0 0 0 0 0 -0 -0 0 0 0 0 0 -0 -0 -0 -0 -0 0 -0 -0 0 0 -0 -0 -0 -0 -0 -0 -0 -0 -0 -0 -0 -0 -0 -0 -0 -0 -0 -0 -0
0 0 0 0 0 0 0 0 0 -0 -0 -0 0 -0 -0 0 -0 0 0 0 0 0 -0 -0 -0 0 -0 -0 -0 -0 0 -0 -0 -0 -0 -0 -0 -0 -0 -0 -0 -0 -0 -0 -0 -0 -0 -0 -0
0 0 0 0 0 -0 0 0 0 -0 -0 0 0 -0 -0 -0 -0 0 0 0 0 0 -0 -0 -0 -0 -0 -0 -0 -0 0 -0 -0 -0 -0 -0 -0 -0 -0 -0 -0 -0 -0 -0 -0 -0 -0 -0 -0
0 0 0 0 0 0 0 0 0 0 0 -0 0 -0 -0 -0 0 0 0 0 0 0 -0 -0 -0 -0 -0 -0 -0 -0 0 -0 -0 -0 -0 -0 -0 -0 -0 -0 -0 -0 -0 -0 -0 0 -0 -0 0
0 0 0 0 0 -0 0 0 0 0 0 0 0 -0 -0 0 -0 -0 -0 -0 0 -0 -0 -0 -0 -0 -0 -0 -0 0 0 -0 -0 -0 -0 -0 -0 -0 0 0 0 -0 -0 -0 0 0 -0 0 0
0 0 0 0 0 0 0 0 0 0 0 0 0 0 -0 -0 -0 -0 0 0 -0 -0 -0 -0 -0 -0 -0 -0 -0 0 0 -0 -0 -0 -0 0 0 0 0 0 0 0 -0 -0 0 0 0 0 0
0 0 0 0 0 0 0 0 0 0 0 0 0 0 0 0 0 0 0 0 0 0 0 0 0 -0 -0 0 0 0 0 0 0 0 -0 -0 0 0 0 0 0 0 0 0 0 0 0 0 0
0 0 0 0 0 0 0 0 0 0 0 0 -0 -0 0 0 -0 0 0 0 0 -0 0 0 0 0 0 0 0 0 0 0 0 0 0 0 0 0 0 0 0 0 0 0 0 0 0 0 0
0 0 0 0 0 0 0 0 0 0 0 0 0 0 0 -0 0 0 0 -0 -0 -0 -0 -0 0 -0 -0 0 0 0 0 0 0 0 0 0 0 0 0 0 0 0 0 0 0 0 0 0 0
0 0 0 0 0 0 0 0 0 0 0 0 0 0 0 -0 -0 -0 0 0 -0 -0 -0 -0 -0 -0 -0 -0 0 0 0 0 0 0 0 0 0 0 0 0 0 0 0 0 0 0 0 0 0
0 0 0 0 0 0 0 0 0 0 0 0 0 0 0 0 0 0 0 0 0 -0 -0 -0 -0 -0 -0 -0 -0 0 0 0 0 0 0 0 0 0 0 0 0 0 0 0 0 0 0 0 0
0 0 0 0 0 0 0 0 0 0 0 0 0 0 0 0 0 0 0 0 0 0 0 -0 -0 -0 -0 -0 0 0 0 0 0 0 0 0 0 0 0 0 0 0 0 0 0 0 0 0 0
0 0 0 0 0 0 0 0 0 0 0 0 0 0 0 0 0 0 0 0 0 0 0 0 0 0 0 0 0 0 0 0 0 0 0 0 0 0 0 0 0 0 0 0 0 0 0 0 0
0 0 0 0 0 0 0 0 0 0 0 0 0 0 0 0 0 0 0 0 0 0 0 0 0 0 0 0 0 0 0 0 0 0 0 0 0 0 0 0 0 0 0 0 0 0 0 0 0
0 0 0 0 0 0 0 0 0 0 0 0 0 0 0 0 0 0 0 0 0 0 0 0 0 0 0 0 0 0 0 0 0 0 0 0 0 0 0 0 0 0 0 0 0 0 0 0 0
0 0 0 0 0 0 0 0 0 0 0 0 0 0 0 0 0 0 0 0 0 0 0 0 0 0 0 0 0 0 0 0 0 0 0 0 0 0 0 0 0 0 0 0 0 0 0 0 0
0 0 0 0 0 0 0 0 0 0 0 0 0 0 0 0 0 0 0 0 0 0 0 0 0 0 0 0 0 0 0 0 0 0 0 0 0 0 0 0 0 0 0 0 0 0 0 0 0
0 0 0 0 0 0 0 0 0 0 0 0 0 0 0 0 0 0 0 0 0 0 0 0 0 0 0 0 0 0 0 0 0 0 0 0 0 0 0 0 0 0 0 0 0 0 0 0 0
0 0 0 0 0 0 0 0 0 0 0 0 0 0 0 0 0 0 0 0 0 0 0 0 0 0 0 0 0 0 0 0 0 0 0 0 0 0 0 0 0 0 0 0 0 0 0 0 0
0 0 0 0 0 0 0 0 0 0 0 0 0 0 0 0 0 0 0 0 0 0 0 0 0 0 0 0 0 0 0 0 0 0 0 0 0 0 0 0 0 0 0 0 0 0 0 0 0
0 0 0 0 0 0 0 0 0 0 0 0 0 0 0 0 0 0 0 0 0 0 0 0 0 0 0 0 0 0 0 0 0 0 0 0 0 0 0 0 0 0 0 0 0 0 0 0 0
0 0 0 0 0 0 0 0 0 0 0 0 0 0 0 0 0 0 0 0 0 0 0 0 0 0 0 0 0 0 0 0 0 0 0 0 0 0 0 0 0 0 0 0 0 0 0 0 0
0 0 0 0 0 0 0 0 0 0 0 0 0 0 0 0 0 0 0 0 0 0 0 0 0 0 0 0 0 0 0 0 0 0 0 0 0 0 0 0 0 0 0 0 0 0 0 0 0
0 0 0 0 0 0 0 0 0 0 0 0 0 0 0 0 0 0 0 0 0 0 0 0 0 0 0 0 0 0 0 0 0 0 0 0 0 0 0 0 0 0 0 0 0 0 0 0 0
0 0 0 0 0 0 0 0 0 0 0 0 0 0 0 0 0 0 0 0 0 0 0 0 0 0 0 0 0 0 0 0 0 0 0 0 0 0 0 0 0 0 0 0 0 0 0 0 0
0 0 0 0 0 0 0 0 0 0 0 0 0 0 0 0 0 0 0 0 0 0 0 0 0 0 0 0 0 0 0 0 0 0 0 0 0 0 0 0 0 0 0 0 0 0 0 0 0
0 0 0 0 0 0 0 0 0 0 0 0 0 0 0 0 0 0 0 0 0 0 0 0 0 0 0 0 0 0 0 0 0 0 0 0 0 0 0 0 0 0 0 0 0 0 0 0 0
Wind_Speed_500mb
11 15 14 13 4 6 4 7 10 13 9 13 20 15 23 31 12 15 36 27 33 31 30 28 25 22 24 25 24 20 18 21 23 19 20 22 24 32 31 30 27 28 24 25 22 21 23 26 21
11 11 8 11 5 9 7 16 7 13 27 20 9 2 22 13 17 42 37 33 36 31 28 28 24 22 23 27 27 23 19 19 22 24 23 25 29 34 31 24 32 31 29 27 26 29 30 26 25
9 7 8 5 10 7 6 15 15 31 20 12 8 12 15 13 30 38 41 42 33 32 30 27 25 24 22 26 31 25 20 15 21 25 24 25 29 34 29 24 27 29 30 26 28 29 30 29 29
4 5 9 6 15 3 12 12 38 23 10 3 5 19 16 20 18 24 53 43 32 28 24 25 26 26 27 26 30 29 20 14 18 22 21 21 23 26 27 24 23 24 28 25 27 26 24 26 28
4 10 6 11 19 11 6 26 34 15 21 16 8 15 20 20 20 39 50 44 38 30 24 25 25 25 26 27 28 29 20 15 17 18 19 19 20 20 19 19 21 21 25 23 23 22 25 26 27
9 7 7 11 17 14 6 14 20 17 20 19 2 24 16 18 30 45 46 41 36 28 27 26 26 24 23 25 26 27 21 15 15 16 17 17 17 17 18 18 19 21 23 20 20 22 22 25 25
6 5 13 19 10 11 9 14 13 14 13 14 5 9 21 27 31 43 44 38 36 27 30 27 25 25 23 23 22 21 20 15 14 15 15 15 16 17 16 20 20 13 15 17 18 19 23 24 25
9 4 18 20 11 11 18 18 12 12 12 18 5 6 20 37 37 42 41 35 36 26 26 27 25 23 21 21 21 19 18 14 13 13 13 12 13 16 16 18 22 15 15 15 16 18 21 21 20
10 3 13 25 10 12 31 11 3 9 15 13 6 21 39 39 46 46 43 38 35 28 20 20 25 24 21 19 18 17 15 13 11 10 9 9 9 10 10 12 8 10 11 12 13 13 14 14 13
11 7 15 16 12 20 31 25 20 7 18 13 11 24 31 33 50 53 54 48 42 34 29 24 21 18 16 19 18 16 14 12 10 8 6 5 3 3 5 3 3 1 2 7 7 7 8 9 10
12 9 19 10 17 33 33 17 25 15 12 27 33 31 30 34 40 45 49 50 50 45 49 39 31 30 26 23 21 20 18 17 12 10 9 7 4 4 3 6 6 3 2 7 8 7 5 6 3
7 9 14 7 10 9 27 19 10 26 10 16 23 30 35 38 39 40 43 45 45 47 44 51 42 38 34 29 26 25 22 21 17 14 13 11 7 8 9 7 8 5 5 5 6 5 1 2 2
9 11 5 11 16 10 21 16 6 19 16 21 23 29 30 33 35 36 36 41 43 50 47 49 49 44 40 36 29 25 26 25 22 19 17 15 15 12 12 10 10 7 7 4 6 6 4 3 3
28 17 20 14 14 6 14 9 4 19 30 20 25 31 27 31 34 33 37 41 45 46 41 40 44 49 46 41 39 33 31 28 27 26 22 21 21 17 16 16 15 13 9 8 7 7 6 5 3
20 13 8 11 13 5 3 8 13 21 29 22 21 24 26 30 33 39 40 42 45 46 42 45 42 45 49 47 44 40 38 34 33 32 30 27 27 24 22 22 20 18 15 14 10 9 8 9 10
12 11 10 10 15 3 7 7 29 36 31 27 23 19 27 34 36 36 38 39 41 45 47 46 51 43 45 46 44 44 44 41 39 35 31 31 33 32 29 29 27 24 20 21 17 14 13 15 18
15 10 13 8 13 9 9 7 9 17 18 19 23 32 30 29 35 43 43 40 41 43 44 50 50 45 42 44 45 44 42 43 41 39 36 31 27 34 35 34 32 31 27 26 27 27 25 25 28
13 11 15 14 14 6 10 15 7 11 14 15 16 17 24 31 34 36 43 48 44 42 42 45 44 39 39 45 46 45 44 45 44 44 42 38 36 30 34 37 36 37 37 39 37 35 38 40 41
10 17 11 11 3 9 14 11 18 25 28 26 22 24 25 26 23 28 28 36 45 46 46 46 46 46 43 44 51 53 53 50 49 48 46 45 42 42 37 39 39 41 45 43 43 45 47 47 49
11 19 13 10 12 5 9 18 15 21 28 33 33 30 27 27 24 33 33 35 38 45 48 51 52 50 50 50 48 48 51 53 51 51 52 49 52 49 50 48 44 46 44 45 44 46 50 49 52
8 10 11 9 10 3 4 13 16 19 50 35 36 29 19 18 31 21 19 25 31 35 42 48 52 51 50 51 54 47 46 50 51 54 53 53 52 51 50 52 54 52 52 50 54 51 52 57 57
8 12 18 21 14 6 9 8 8 14 16 12 21 26 25 21 31 35 28 22 37 42 45 47 50 54 55 49 56 54 49 51 51 49 47 49 50 48 48 50 53 58 57 56 55 56 61 65 69
8 16 13 8 6 4 6 2 11 12 9 14 23 25 23 21 20 23 26 35 36 32 32 36 40 47 50 58 51 51 46 40 41 40 38 39 40 39 38 40 45 51 58 57 52 58 54 60 58
17 16 12 4 5 2 14 13 9 10 11 10 25 23 15 14 20 17 14 15 14 14 16 20 24 28 32 42 54 53 43 34 34 26 30 32 31 33 32 32 33 36 43 46 47 49 53 53 59
9 14 6 4 3 10 14 9 18 5 4 16 26 28 20 19 19 18 15 13 12 12 11 8 9 12 18 26 34 47 48 37 25 25 30 31 33 34 31 33 33 36 36 42 45 48 51 55 57
14 12 10 13 8 7 10 11 12 4 25 39 36 30 27 27 24 21 17 14 13 12 12 11 9 9 8 14 23 32 35 40 25 19 20 23 27 28 27 27 25 32 34 37 41 47 54 57 59
11 11 3 14 6 8 10 11 2 11 11 19 29 30 30 22 19 19 19 15 14 14 13 12 11 11 11 11 12 14 19 24 32 27 19 20 22 28 29 31 32 34 35 39 42 47 53 59 60
5 13 7 4 9 6 9 8 10 14 18 18 23 39 35 26 22 20 19 19 17 17 18 16 15 15 17 17 17 16 15 13 10 7 4 1 5 9 14 19 23 27 31 34 39 42 44 50 54
5 6 6 9 9 10 6 12 6 10 20 22 29 43 36 32 27 24 24 24 22 21 22 23 23 25 25 25 25 21 20 17 14 10 7 2 3 8 13 17 21 25 30 35 39 43 45 48 52
6 9 9 8 9 3 7 10 5 10 19 43 42 42 35 31 29 27 28 28 27 27 28 28 27 25 25 23 20 16 14 10 7 5 4 7 10 13 16 19 22 25 30 34 39 42 44 49 52
Wind_Direction_500mb
329 2 352 309 258 225 139 121 79 82 115 59 57 20 80 48 20 111 135 155 147 156 151 142 132 131 127 126 119 111 97 82 78 82 87 87 85 91 85 71 86 89 98 99 101 95 95 109 99
326 14 335 285 243 225 128 110 162 107 92 93 90 317 84 84 80 128 129 153 143 148 147 141 130 122 126 120 121 118 106 93 81 85 95 91 92 89 89 81 88 94 90 95 94 92 98 101 101
317 11 302 246 250 318 124 136 128 93 111 150 121 32 34 91 119 134 142 140 152 139 139 136 130 126 123 120 124 123 117 95 72 72 84 87 95 102 96 82 95 94 92 91 94 97 101 103 105
317 255 261 277 266 26 67 163 108 118 94 36 345 88 84 94 120 161 143 143 149 152 145 136 129 130 128 123 128 129 131 113 86 80 84 89 91 97 102 103 88 91 96 92 92 100 100 99 98
257 281 248 216 266 88 1 112 126 157 146 152 251 104 101 117 134 145 145 143 147 178 155 145 135 133 132 125 128 131 133 118 101 89 81 86 89 93 93 98 86 88 101 87 86 87 95 97 102
250 261 257 249 238 93 90 91 147 178 138 102 181 114 103 156 142 150 148 150 155 182 163 154 139 135 134 129 130 141 137 126 109 91 84 90 97 101 98 92 94 82 94 92 86 88 94 98 105
261 233 247 258 236 114 138 163 202 140 129 165 100 102 133 143 155 153 150 158 149 191 169 160 153 147 142 136 134 136 146 135 122 105 99 95 95 101 108 104 105 102 103 81 83 85 97 98 96
244 259 250 264 219 161 130 168 207 149 110 112 179 156 161 161 160 155 152 162 163 192 174 169 165 159 153 149 147 146 153 148 134 118 102 99 105 116 121 129 129 138 125 119 105 89 94 101 96
220 229 245 256 273 120 138 137 200 104 109 109 134 88 148 169 156 157 159 165 171 185 187 186 177 174 168 165 162 162 163 160 149 135 113 105 100 115 123 134 161 144 137 111 103 98 97 94 91
220 198 238 228 228 132 161 169 158 141 142 144 153 118 158 165 163 167 169 173 178 182 179 186 192 176 189 185 183 183 181 184 179 158 139 87 81 103 100 161 180 113 107 124 131 119 103 95 81
225 200 246 23 80 134 166 210 157 198 178 186 174 156 174 166 172 179 181 184 183 193 181 183 196 179 190 211 198 204 204 205 208 188 198 188 212 236 236 234 236 222 161 156 176 158 144 106 159
230 261 335 120 122 133 157 163 173 222 123 119 151 187 177 174 182 189 191 191 190 208 209 197 192 193 191 205 207 217 214 220 221 223 219 224 235 233 247 235 234 211 216 192 204 203 210 164 172
222 136 99 135 144 129 155 149 205 214 156 154 143 169 179 182 192 193 198 199 201 209 228 215 203 207 207 200 213 212 221 224 229 232 235 237 242 241 246 251 251 250 242 256 242 244 227 195 141
197 149 129 158 138 138 145 132 114 217 202 179 156 167 184 188 198 201 199 201 208 218 227 233 221 215 219 219 223 211 213 230 229 238 240 242 246 245 248 247 244 243 243 233 236 240 220 222 203
144 116 130 165 160 136 180 140 218 180 171 183 200 188 191 200 200 210 208 204 207 218 218 230 236 227 225 230 232 224 227 224 239 237 242 241 247 250 250 251 248 245 242 235 236 231 234 247 239
174 142 160 163 141 159 157 235 221 197 170 182 203 203 205 207 206 212 216 213 209 215 217 218 234 237 227 230 233 235 236 235 233 243 244 244 243 247 248 252 252 249 245 242 241 241 252 268 271
200 171 179 157 190 133 185 234 113 161 190 211 227 226 209 222 218 204 209 217 213 216 218 221 233 236 230 229 232 236 235 237 235 240 239 248 245 244 248 250 252 250 250 257 252 254 261 273 282
175 219 183 157 198 189 175 258 160 187 209 219 224 217 213 226 225 226 209 210 215 218 224 226 241 240 233 231 232 236 235 236 237 241 240 239 252 246 246 249 254 249 250 252 254 257 266 276 280
177 199 176 126 119 145 219 243 245 215 205 213 232 233 219 235 231 222 231 222 211 215 214 222 229 247 246 237 231 234 238 238 239 243 246 244 238 255 250 251 252 247 252 259 262 265 270 273 275
262 190 200 56 104 104 226 240 252 245 243 226 222 228 230 220 203 203 213 218 222 220 220 218 224 231 243 251 251 239 238 242 245 246 250 249 248 252 259 259 259 257 254 253 257 260 262 265 274
224 184 148 134 127 268 338 277 233 230 233 228 223 225 212 191 182 192 225 229 225 223 223 223 225 225 233 240 248 247 237 243 243 246 250 253 257 257 256 261 265 265 263 264 262 265 268 270 275
168 87 111 125 139 206 178 267 234 194 196 190 216 220 232 234 218 209 196 208 231 231 232 231 230 226 223 226 241 243 241 240 245 249 252 253 257 259 256 258 256 263 266 271 271 271 272 272 274
161 114 123 129 136 93 212 94 255 107 202 190 186 165 159 190 207 218 217 225 237 244 240 241 240 239 233 223 228 247 244 243 242 249 254 257 259 258 258 260 255 257 263 266 270 270 273 275 282
146 106 90 120 129 273 203 168 262 175 198 105 126 136 161 171 171 188 185 197 211 211 221 230 231 230 227 226 221 224 244 251 258 251 256 257 262 270 274 276 269 263 262 264 270 273 274 279 281
144 139 121 158 174 215 335 181 242 156 94 151 143 139 154 143 136 139 155 160 154 148 144 160 171 186 204 213 216 218 226 228 244 239 238 252 263 273 282 282 281 279 275 275 276 278 280 281 284
202 183 155 172 178 190 345 231 248 89 125 120 125 141 152 164 168 158 152 150 147 141 134 137 143 142 149 177 198 209 217 220 225 235 246 250 252 263 274 284 274 280 280 278 277 279 284 285 283
195 213 110 105 20 79 205 264 227 142 136 138 144 150 152 160 160 158 153 152 148 140 133 127 124 118 123 138 164 194 211 217 224 241 235 237 243 249 260 265 274 277 279 278 277 277 280 281 283
169 151 78 355 127 219 243 241 229 195 195 175 167 163 162 172 165 158 150 146 144 139 135 132 128 121 114 108 102 100 103 109 112 108 94 330 282 278 272 274 275 275 277 278 279 280 281 280 280
150 188 201 144 159 166 171 253 246 202 172 169 171 168 175 173 169 161 151 145 144 140 132 128 122 117 113 110 107 107 106 104 104 103 100 85 298 297 301 302 301 299 298 298 298 297 296 295 295
347 193 164 145 227 203 151 265 12 3 142 156 162 166 171 172 166 157 150 146 141 139 132 129 128 128 126 125 121 119 111 108 110 93 49 13 350 342 335 332 326 322 319 317 314 310 309 308 306
Wind_Speed_850mb
11 15 14 13 4 6 4 7 10 13 9 13 20 15 23 31 12 15 36 27 33 31 30 28 25 22 24 25 24 20 18 21 23 19 20 22 24 32 31 30 27 28 24 25 22 21 23 26 21
11 11 8 11 5 9 7 16 7 13 27 20 9 2 22 13 17 42 37 33 36 31 28 28 24 22 23 27 27 23 19 19 22 24 23 25 29 34 31 24 32 31 29 27 26 29 30 26 25
9 7 8 5 10 7 6 15 15 31 20 12 8 12 15 13 30 38 41 42 33 32 30 27 25 24 22 26 31 25 20 15 21 25 24 25 29 34 29 24 27 29 30 26 28 29 30 29 29
4 5 9 6 15 3 12 12 38 23 10 3 5 19 16 20 18 24 53 43 32 28 24 25 26 26 27 26 30 29 20 14 18 22 21 21 23 26 27 24 23 24 28 25 27 26 24 26 28
4 10 6 11 19 11 6 26 34 15 21 16 8 15 20 20 20 39 50 44 38 30 24 25 25 25 26 27 28 29 20 15 17 18 19 19 20 20 19 19 21 21 25 23 23 22 25 26 27
9 7 7 11 17 14 6 14 20 17 20 19 2 24 16 18 30 45 46 41 36 28 27 26 26 24 23 25 26 27 21 15 15 16 17 17 17 17 18 18 19 21 23 20 20 22 22 25 25
6 5 13 19 10 11 9 14 13 14 13 14 5 9 21 27 31 43 44 38 36 27 30 27 25 25 23 23 22 21 20 15 14 15 15 15 16 17 16 20 20 13 15 17 18 19 23 24 25
9 4 18 20 11 11 18 18 12 12 12 18 5 6 20 37 37 42 41 35 36 26 26 27 25 23 21 21 21 19 18 14 13 13 13 12 13 16 16 18 22 15 15 15 16 18 21 21 20
10 3 13 25 10 12 31 11 3 9 15 13 6 21 39 39 46 46 43 38 35 28 20 20 25 24 21 19 18 17 15 13 11 10 9 9 9 10 10 12 8 10 11 12 13 13 14 14 13
11 7 15 16 12 20 31 25 20 7 18 13 11 24 31 33 50 53 54 48 42 34 29 24 21 18 16 19 18 16 14 12 10 8 6 5 3 3 5 3 3 1 2 7 7 7 8 9 10
12 9 19 10 17 33 33 17 25 15 12 27 33 31 30 34 40 45 49 50 50 45 49 39 31 30 26 23 21 20 18 17 12 10 9 7 4 4 3 6 6 3 2 7 8 7 5 6 3
7 9 14 7 10 9 27 19 10 26 10 16 23 30 35 38 39 40 43 45 45 47 44 51 42 38 34 29 26 25 22 21 17 14 13 11 7 8 9 7 8 5 5 5 6 5 1 2 2
9 11 5 11 16 10 21 16 6 19 16 21 23 29 30 33 35 36 36 41 43 50 47 49 49 44 40 36 29 25 26 25 22 19 17 15 15 12 12 10 10 7 7 4 6 6 4 3 3
28 17 20 14 14 6 14 9 4 19 30 20 25 31 27 31 34 33 37 41 45 46 41 40 44 49 46 41 39 33 31 28 27 26 22 21 21 17 16 16 15 13 9 8 7 7 6 5 3
20 13 8 11 13 5 3 8 13 21 29 22 21 24 26 30 33 39 40 42 45 46 42 45 42 45 49 47 44 40 38 34 33 32 30 27 27 24 22 22 20 18 15 14 10 9 8 9 10
12 11 10 10 15 3 7 7 29 36 31 27 23 19 27 34 36 36 38 39 41 45 47 46 51 43 45 46 44 44 44 41 39 35 31 31 33 32 29 29 27 24 20 21 17 14 13 15 18
15 10 13 8 13 9 9 7 9 17 18 19 23 32 30 29 35 43 43 40 41 43 44 50 50 45 42 44 45 44 42 43 41 39 36 31 27 34 35 34 32 31 27 26 27 27 25 25 28
13 11 15 14 14 6 10 15 7 11 14 15 16 17 24 31 34 36 43 48 44 42 42 45 44 39 39 45 46 45 44 45 44 44 42 38 36 30 34 37 36 37 37 39 37 35 38 40 41
10 17 11 11 3 9 14 11 18 25 28 26 22 24 25 26 23 28 28 36 45 46 46 46 46 46 43 44 51 53 53 50 49 48 46 45 42 42 37 39 39 41 45 43 43 45 47 47 49
11 19 13 10 12 5 9 18 15 21 28 33 33 30 27 27 24 33 33 35 38 45 48 51 52 50 50 50 48 48 51 53 51 51 52 49 52 49 50 48 44 46 44 45 44 46 50 49 52
8 10 11 9 10 3 4 13 16 19 50 35 36 29 19 18 31 21 19 25 31 35 42 48 52 51 50 51 54 47 46 50 51 54 53 53 52 51 50 52 54 52 52 50 54 51 52 57 57
8 12 18 21 14 6 9 8 8 14 16 12 21 26 25 21 31 35 28 22 37 42 45 47 50 54 55 49 56 54 49 51 51 49 47 49 50 48 48 50 53 58 57 56 55 56 61 65 69
8 16 13 8 6 4 6 2 11 12 9 14 23 25 23 21 20 23 26 35 36 32 32 36 40 47 50 58 51 51 46 40 41 40 38 39 40 39 38 40 45 51 58 57 52 58 54 60 58
17 16 12 4 5 2 14 13 9 10 11 10 25 23 15 14 20 17 14 15 14 14 16 20 24 28 32 42 54 53 43 34 34 26 30 32 31 33 32 32 33 36 43 46 47 49 53 53 59
9 14 6 4 3 10 14 9 18 5 4 16 26 28 20 19 19 18 15 13 12 12 11 8 9 12 18 26 34 47 48 37 25 25 30 31 33 34 31 33 33 36 36 42 45 48 51 55 57
14 12 10 13 8 7 10 11 12 4 25 39 36 30 27 27 24 21 17 14 13 12 12 11 9 9 8 14 23 32 35 40 25 19 20 23 27 28 27 27 25 32 34 37 41 47 54 57 59
11 11 3 14 6 8 10 11 2 11 11 19 29 30 30 22 19 19 19 15 14 14 13 12 11 11 11 11 12 14 19 24 32 27 19 20 22 28 29 31 32 34 35 39 42 47 53 59 60
5 13 7 4 9 6 9 8 10 14 18 18 23 39 35 26 22 20 19 19 17 17 18 16 15 15 17 17 17 16 15 13 10 7 4 1 5 9 14 19 23 27 31 34 39 42 44 50 54
5 6 6 9 9 10 6 12 6 10 20 22 29 43 36 32 27 24 24 24 22 21 22 23 23 25 25 25 25 21 20 17 14 10 7 2 3 8 13 17 21 25 30 35 39 43 45 48 52
6 9 9 8 9 3 7 10 5 10 19 43 42 42 35 31 29 27 28 28 27 27 28 28 27 25 25 23 20 16 14 10 7 5 4 7 10 13 16 19 22 25 30 34 39 42 44 49 52
Wind_Direction_850mb
329 2 352 309 258 225 139 121 79 82 115 59 57 20 80 48 20 111 135 155 147 156 151 142 132 131 127 126 119 111 97 82 78 82 87 87 85 91 85 71 86 89 98 99 101 95 95 109 99
326 14 335 285 243 225 128 110 162 107 92 93 90 317 84 84 80 128 129 153 143 148 147 141 130 122 126 120 121 118 106 93 81 85 95 91 92 89 89 81 88 94 90 95 94 92 98 101 101
317 11 302 246 250 318 124 136 128 93 111 150 121 32 34 91 119 134 142 140 152 139 139 136 130 126 123 120 124 123 117 95 72 72 84 87 95 102 96 82 95 94 92 91 94 97 101 103 105
317 255 261 277 266 26 67 163 108 118 94 36 345 88 84 94 120 161 143 143 149 152 145 136 129 130 128 123 128 129 131 113 86 80 84 89 91 97 102 103 88 91 96 92 92 100 100 99 98
257 281 248 216 266 88 1 112 126 157 146 152 251 104 101 117 134 145 145 143 147 178 155 145 135 133 132 125 128 131 133 118 101 89 81 86 89 93 93 98 86 88 101 87 86 87 95 97 102
250 261 257 249 238 93 90 91 147 178 138 102 181 114 103 156 142 150 148 150 155 182 163 154 139 135 134 129 130 141 137 126 109 91 84 90 97 101 98 92 94 82 94 92 86 88 94 98 105
261 233 247 258 236 114 138 163 202 140 129 165 100 102 133 143 155 153 150 158 149 191 169 160 153 147 142 136 134 136 146 135 122 105 99 95 95 101 108 104 105 102 103 81 83 85 97 98 96
244 259 250 264 219 161 130 168 207 149 110 112 179 156 161 161 160 155 152 162 163 192 174 169 165 159 153 149 147 146 153 148 134 118 102 99 105 116 121 129 129 138 125 119 105 89 94 101 96
220 229 245 256 273 120 138 137 200 104 109 109 134 88 148 169 156 157 159 165 171 185 187 186 177 174 168 165 162 162 163 160 149 135 113 105 100 115 123 134 161 144 137 111 103 98 97 94 91
220 198 238 228 228 132 161 169 158 141 142 144 153 118 158 165 163 167 169 173 178 182 179 186 192 176 189 185 183 183 181 184 179 158 139 87 81 103 100 161 180 113 107 124 131 119 103 95 81
225 200 246 23 80 134 166 210 157 198 178 186 174 156 174 166 172 179 181 184 183 193 181 183 196 179 190 211 198 204 204 205 208 188 198 188 212 236 236 234 236 222 161 156 176 158 144 106 159
230 261 335 120 122 133 157 163 173 222 123 119 151 187 177 174 182 189 191 191 190 208 209 197 192 193 191 205 207 217 214 220 221 223 219 224 235 233 247 235 234 211 216 192 204 203 210 164 172
222 136 99 135 144 129 155 149 205 214 156 154 143 169 179 182 192 193 198 199 201 209 228 215 203 207 207 200 213 212 221 224 229 232 235 237 242 241 246 251 251 250 242 256 242 244 227 195 141
197 149 129 158 138 138 145 132 114 217 202 179 156 167 184 188 198 201 199 201 208 218 227 233 221 215 219 219 223 211 213 230 229 238 240 242 246 245 248 247 244 243 243 233 236 240 220 222 203
144 116 130 165 160 136 180 140 218 180 171 183 200 188 191 200 200 210 208 204 207 218 218 230 236 227 225 230 232 224 227 224 239 237 242 241 247 250 250 251 248 245 242 235 236 231 234 247 239
174 142 160 163 141 159 157 235 221 197 170 182 203 203 205 207 206 212 216 213 209 215 217 218 234 237 227 230 233 235 236 235 233 243 244 244 243 247 248 252 252 249 245 242 241 241 252 268 271
200 171 179 157 190 133 185 234 113 161 190 211 227 226 209 222 218 204 209 217 213 216 218 221 233 236 230 229 232 236 235 237 235 240 239 248 245 244 248 250 252 250 250 257 252 254 261 273 282
175 219 183 157 198 189 175 258 160 187 209 219 224 217 213 226 225 226 209 210 215 218 224 226 241 240 233 231 232 236 235 236 237 241 240 239 252 246 246 249 254 249 250 252 254 257 266 276 280
177 199 176 126 119 145 219 243 245 215 205 213 232 233 219 235 231 222 231 222 211 215 214 222 229 247 246 237 231 234 238 238 239 243 246 244 238 255 250 251 252 247 252 259 262 265 270 273 275
262 190 200 56 104 104 226 240 252 245 243 226 222 228 230 220 203 203 213 218 222 220 220 218 224 231 243 251 251 239 238 242 245 246 250 249 248 252 259 259 259 257 254 253 257 260 262 265 274
224 184 148 134 127 268 338 277 233 230 233 228 223 225 212 191 182 192 225 229 225 223 223 223 225 225 233 240 248 247 237 243 243 246 250 253 257 257 256 261 265 265 263 264 262 265 268 270 275
168 87 111 125 139 206 178 267 234 194 196 190 216 220 232 234 218 209 196 208 231 231 232 231 230 226 223 226 241 243 241 240 245 249 252 253 257 259 256 258 256 263 266 271 271 271 272 272 274
161 114 123 129 136 93 212 94 255 107 202 190 186 165 159 190 207 218 217 225 237 244 240 241 240 239 233 223 228 247 244 243 242 249 254 257 259 258 258 260 255 257 263 266 270 270 273 275 282
146 106 90 120 129 273 203 168 262 175 198 105 126 136 161 171 171 188 185 197 211 211 221 230 231 230 227 226 221 224 244 251 258 251 256 257 262 270 274 276 269 263 262 264 270 273 274 279 281
144 139 121 158 174 215 335 181 242 156 94 151 143 139 154 143 136 139 155 160 154 148 144 160 171 186 204 213 216 218 226 228 244 239 238 252 263 273 282 282 281 279 275 275 276 278 280 281 284
202 183 155 172 178 190 345 231 248 89 125 120 125 141 152 164 168 158 152 150 147 141 134 137 143 142 149 177 198 209 217 220 225 235 246 250 252 263 274 284 274 280 280 278 277 279 284 285 283
195 213 110 105 20 79 205 264 227 142 136 138 144 150 152 160 160 158 153 152 148 140 133 127 124 118 123 138 164 194 211 217 224 241 235 237 243 249 260 265 274 277 279 278 277 277 280 281 283
169 151 78 355 127 219 243 241 229 195 195 175 167 163 162 172 165 158 150 146 144 139 135 132 128 121 114 108 102 100 103 109 112 108 94 330 282 278 272 274 275 275 277 278 279 280 281 280 280
150 188 201 144 159 166 171 253 246 202 172 169 171 168 175 173 169 161 151 145 144 140 132 128 122 117 113 110 107 107 106 104 104 103 100 85 298 297 301 302 301 299 298 298 298 297 296 295 295
347 193 164 145 227 203 151 265 12 3 142 156 162 166 171 172 166 157 150 146 141 139 132 129 128 128 126 125 121 119 111 108 110 93 49 13 350 342 335 332 326 322 319 317 314 310 309 308 306